Time,TemperatureF,DewpointF,PressureIn,WindDirection,WindDirectionDegrees,WindSpeedMPH,WindSpeedGustMPH,Humidity,HourlyPrecipIn,Conditions,Clouds,dailyrainin,SoftwareType,DateUTC
2015-08-29 00:01:00,69.0,63.3,30.01,SSE,158,1.0,3.0,82,0.00,,,0.00,Wunderground v.1.15,2015-08-29 05:01:00,
2015-08-29 00:07:00,68.9,63.2,30.00,SSE,160,1.0,4.0,82,0.00,,,0.00,Wunderground v.1.15,2015-08-29 05:07:00,
2015-08-29 00:13:00,68.8,63.1,30.00,SSE,160,1.0,4.0,82,0.00,,,0.00,Wunderground v.1.15,2015-08-29 05:13:00,
2015-08-29 00:19:00,68.8,63.1,30.00,SSE,163,2.0,4.0,82,0.00,,,0.00,Wunderground v.1.15,2015-08-29 05:19:00,
2015-08-29 00:25:00,68.9,63.2,30.00,SSE,160,3.0,7.0,82,0.00,,,0.00,Wunderground v.1.15,2015-08-29 05:25:00,
2015-08-29 00:31:00,69.0,63.3,30.00,SSE,154,3.0,3.0,82,0.00,,,0.00,Wunderground v.1.15,2015-08-29 05:31:00,
2015-08-29 00:37:00,69.2,63.1,30.00,SSE,152,3.0,7.0,81,0.00,,,0.00,Wunderground v.1.15,2015-08-29 05:37:00,
2015-08-29 00:42:00,69.4,63.3,30.00,SE,146,3.0,6.0,81,0.00,,,0.00,Wunderground v.1.15,2015-08-29 05:42:00,
2015-08-29 00:46:00,69.5,63.4,30.01,SSE,154,3.0,6.0,81,0.00,,,0.00,Wunderground v.1.15,2015-08-29 05:46:00,
2015-08-29 00:51:00,69.5,63.4,30.01,SSE,154,2.0,3.0,81,0.00,,,0.00,Wunderground v.1.15,2015-08-29 05:51:00,
2015-08-29 00:57:00,69.5,63.4,30.01,SSE,154,2.0,5.0,81,0.00,,,0.00,Wunderground v.1.15,2015-08-29 05:57:00,
2015-08-29 01:03:00,69.4,63.3,30.01,SSE,160,3.0,4.0,81,0.00,,,0.00,Wunderground v.1.15,2015-08-29 06:03:00,
2015-08-29 01:09:00,69.4,63.3,30.01,SSE,158,3.0,6.0,81,0.00,,,0.00,Wunderground v.1.15,2015-08-29 06:09:00,
2015-08-29 01:15:00,69.3,63.2,30.01,SSE,158,3.0,4.0,81,0.00,,,0.00,Wunderground v.1.15,2015-08-29 06:15:00,
2015-08-29 01:21:00,69.6,63.5,30.01,SSE,158,2.0,2.0,81,0.00,,,0.00,Wunderground v.1.15,2015-08-29 06:21:00,
2015-08-29 01:27:00,69.7,63.6,30.01,SSE,157,1.0,5.0,81,0.00,,,0.00,Wunderground v.1.15,2015-08-29 06:27:00,
2015-08-29 01:33:00,69.7,64.0,30.01,SSE,157,1.0,1.0,82,0.00,,,0.00,Wunderground v.1.15,2015-08-29 06:33:00,
2015-08-29 01:39:00,69.6,63.9,30.01,SSE,158,0.0,3.0,82,0.00,,,0.00,Wunderground v.1.15,2015-08-29 06:39:00,
2015-08-29 01:45:00,69.4,64.0,30.01,SSE,158,1.0,3.0,83,0.00,,,0.00,Wunderground v.1.15,2015-08-29 06:45:00,
2015-08-29 01:51:00,69.1,63.7,30.01,SSE,160,2.0,3.0,83,0.00,,,0.00,Wunderground v.1.15,2015-08-29 06:51:00,
2015-08-29 01:57:00,69.0,64.0,30.01,SSE,157,3.0,4.0,84,0.00,,,0.00,Wunderground v.1.15,2015-08-29 06:57:00,
2015-08-29 02:03:00,68.9,63.9,30.00,SSE,161,3.0,5.0,84,0.00,,,0.00,Wunderground v.1.15,2015-08-29 07:03:00,
2015-08-29 02:09:00,69.1,64.1,30.00,SSE,156,3.0,5.0,84,0.00,,,0.00,Wunderground v.1.15,2015-08-29 07:09:00,
2015-08-29 02:15:00,69.1,64.1,30.00,SSE,158,3.0,9.0,84,0.00,,,0.00,Wunderground v.1.15,2015-08-29 07:15:00,
2015-08-29 02:20:00,69.1,64.1,30.00,SSE,156,3.0,4.0,84,0.00,,,0.00,Wunderground v.1.15,2015-08-29 07:20:00,
2015-08-29 02:26:00,69.0,64.0,29.99,SSE,159,3.0,7.0,84,0.00,,,0.00,Wunderground v.1.15,2015-08-29 07:26:00,
2015-08-29 02:32:00,68.9,64.2,29.99,South,174,4.0,4.0,85,0.00,,,0.00,Wunderground v.1.15,2015-08-29 07:32:00,
2015-08-29 02:38:00,68.9,64.2,29.99,South,172,4.0,6.0,85,0.00,,,0.00,Wunderground v.1.15,2015-08-29 07:38:00,
2015-08-29 02:44:00,68.9,64.2,29.99,South,171,4.0,5.0,85,0.00,,,0.00,Wunderground v.1.15,2015-08-29 07:44:00,
2015-08-29 02:49:00,68.9,64.2,29.99,South,170,4.0,7.0,85,0.00,,,0.00,Wunderground v.1.15,2015-08-29 07:49:00,
2015-08-29 02:55:00,69.0,64.3,29.99,SSE,165,4.0,5.0,85,0.00,,,0.00,Wunderground v.1.15,2015-08-29 07:55:00,
2015-08-29 03:00:00,69.1,64.4,29.99,SSE,165,4.0,4.0,85,0.00,,,0.00,Wunderground v.1.15,2015-08-29 08:00:00,
2015-08-29 03:05:00,69.2,64.5,29.99,SSE,165,3.0,5.0,85,0.00,,,0.00,Wunderground v.1.15,2015-08-29 08:05:00,
2015-08-29 03:11:00,69.2,64.5,29.99,SSE,165,3.0,3.0,85,0.00,,,0.00,Wunderground v.1.15,2015-08-29 08:11:00,
2015-08-29 03:16:00,69.2,64.5,29.99,SSE,165,3.0,5.0,85,0.00,,,0.00,Wunderground v.1.15,2015-08-29 08:16:00,
2015-08-29 03:22:00,69.2,64.5,29.99,SSE,165,3.0,6.0,85,0.00,,,0.00,Wunderground v.1.15,2015-08-29 08:22:00,
2015-08-29 03:28:00,69.1,64.4,29.99,SSE,165,2.0,7.0,85,0.00,,,0.00,Wunderground v.1.15,2015-08-29 08:28:00,
2015-08-29 03:34:00,69.2,64.8,29.98,SSE,163,3.0,6.0,86,0.00,,,0.00,Wunderground v.1.15,2015-08-29 08:34:00,
2015-08-29 03:40:00,69.2,64.8,29.98,SSE,165,3.0,3.0,86,0.00,,,0.00,Wunderground v.1.15,2015-08-29 08:40:00,
2015-08-29 03:46:00,69.2,64.5,29.98,SSE,165,3.0,7.0,85,0.00,,,0.00,Wunderground v.1.15,2015-08-29 08:46:00,
2015-08-29 03:52:00,69.2,64.5,29.97,SSE,157,4.0,7.0,85,0.00,,,0.00,Wunderground v.1.15,2015-08-29 08:52:00,
2015-08-29 03:58:00,69.2,64.5,29.97,SSE,158,3.0,7.0,85,0.00,,,0.00,Wunderground v.1.15,2015-08-29 08:58:00,
2015-08-29 04:04:00,69.3,64.6,29.97,SSE,154,3.0,4.0,85,0.00,,,0.00,Wunderground v.1.15,2015-08-29 09:04:00,
2015-08-29 04:10:00,69.3,64.9,29.97,SSE,167,4.0,4.0,86,0.00,,,0.00,Wunderground v.1.15,2015-08-29 09:10:00,
2015-08-29 04:16:00,69.2,64.8,29.97,SSE,162,4.0,6.0,86,0.00,,,0.00,Wunderground v.1.15,2015-08-29 09:16:00,
2015-08-29 04:21:00,69.2,64.8,29.97,SSE,160,3.0,8.0,86,0.00,,,0.00,Wunderground v.1.15,2015-08-29 09:21:00,
2015-08-29 04:27:00,69.2,64.8,29.97,SSE,158,3.0,8.0,86,0.00,,,0.00,Wunderground v.1.15,2015-08-29 09:27:00,
2015-08-29 04:33:00,69.3,64.9,29.97,SSE,152,3.0,3.0,86,0.00,,,0.00,Wunderground v.1.15,2015-08-29 09:33:00,
2015-08-29 04:39:00,69.2,64.8,29.97,SSE,162,3.0,5.0,86,0.00,,,0.00,Wunderground v.1.15,2015-08-29 09:39:00,
2015-08-29 04:45:00,69.0,64.6,29.97,SSE,160,3.0,6.0,86,0.00,,,0.00,Wunderground v.1.15,2015-08-29 09:45:00,
2015-08-29 04:51:00,68.8,64.8,29.97,SSE,161,3.0,6.0,87,0.00,,,0.00,Wunderground v.1.15,2015-08-29 09:51:00,
2015-08-29 04:57:00,68.8,64.8,29.97,SSE,160,4.0,6.0,87,0.00,,,0.00,Wunderground v.1.15,2015-08-29 09:57:00,
2015-08-29 05:02:00,68.7,64.7,29.97,SSE,160,4.0,4.0,87,0.00,,,0.00,Wunderground v.1.15,2015-08-29 10:02:00,
2015-08-29 05:08:00,68.8,64.8,29.97,SSE,161,3.0,5.0,87,0.00,,,0.00,Wunderground v.1.15,2015-08-29 10:08:00,
2015-08-29 05:14:00,68.8,64.8,29.97,SSE,159,2.0,5.0,87,0.00,,,0.00,Wunderground v.1.15,2015-08-29 10:14:00,
2015-08-29 05:20:00,68.9,64.9,29.97,SSE,162,2.0,3.0,87,0.00,,,0.00,Wunderground v.1.15,2015-08-29 10:20:00,
2015-08-29 05:26:00,68.8,64.8,29.97,SSE,158,2.0,3.0,87,0.00,,,0.00,Wunderground v.1.15,2015-08-29 10:26:00,
2015-08-29 05:32:00,68.9,64.9,29.97,SSE,160,2.0,5.0,87,0.00,,,0.00,Wunderground v.1.15,2015-08-29 10:32:00,
2015-08-29 05:38:00,69.0,65.0,29.97,SSE,158,3.0,5.0,87,0.00,,,0.00,Wunderground v.1.15,2015-08-29 10:38:00,
2015-08-29 05:44:00,69.0,65.0,29.97,SSE,160,2.0,4.0,87,0.00,,,0.00,Wunderground v.1.15,2015-08-29 10:44:00,
2015-08-29 05:50:00,69.0,65.0,29.97,SSE,158,3.0,3.0,87,0.00,,,0.00,Wunderground v.1.15,2015-08-29 10:50:00,
2015-08-29 05:56:00,68.8,65.1,29.97,SSE,163,2.0,4.0,88,0.00,,,0.00,Wunderground v.1.15,2015-08-29 10:56:00,
2015-08-29 06:02:00,68.9,65.2,29.98,SSE,160,2.0,4.0,88,0.00,,,0.00,Wunderground v.1.15,2015-08-29 11:02:00,
2015-08-29 06:08:00,68.9,65.2,29.98,SSE,161,3.0,5.0,88,0.00,,,0.00,Wunderground v.1.15,2015-08-29 11:08:00,
2015-08-29 06:14:00,69.0,65.3,29.98,SSE,158,2.0,3.0,88,0.00,,,0.00,Wunderground v.1.15,2015-08-29 11:14:00,
2015-08-29 06:20:00,69.0,65.3,29.98,SSE,162,1.0,1.0,88,0.00,,,0.00,Wunderground v.1.15,2015-08-29 11:20:00,
2015-08-29 06:25:00,69.0,65.3,29.98,SSE,158,0.0,2.0,88,0.00,,,0.00,Wunderground v.1.15,2015-08-29 11:25:00,
2015-08-29 06:31:00,68.9,65.2,29.98,SSE,159,1.0,3.0,88,0.00,,,0.00,Wunderground v.1.15,2015-08-29 11:31:00,
2015-08-29 06:37:00,68.8,65.1,29.98,SSE,160,2.0,4.0,88,0.00,,,0.00,Wunderground v.1.15,2015-08-29 11:37:00,
2015-08-29 06:43:00,68.7,65.3,29.98,SSE,160,2.0,4.0,89,0.00,,,0.00,Wunderground v.1.15,2015-08-29 11:43:00,
2015-08-29 06:49:00,68.6,65.2,29.98,SSE,159,2.0,4.0,89,0.00,,,0.00,Wunderground v.1.15,2015-08-29 11:49:00,
2015-08-29 06:55:00,68.5,65.1,29.98,SSE,160,2.0,3.0,89,0.00,,,0.00,Wunderground v.1.15,2015-08-29 11:55:00,
2015-08-29 07:00:00,68.5,65.4,29.98,SSE,162,2.0,2.0,90,0.00,,,0.01,Wunderground v.1.15,2015-08-29 12:00:00,
2015-08-29 07:06:00,68.4,65.4,29.98,SSE,161,2.0,3.0,90,0.00,,,0.01,Wunderground v.1.15,2015-08-29 12:06:00,
2015-08-29 07:12:00,68.3,65.3,29.99,SSE,159,1.0,1.0,90,0.00,,,0.01,Wunderground v.1.15,2015-08-29 12:12:00,
2015-08-29 07:18:00,68.3,65.6,29.99,SSE,161,0.0,1.0,91,0.00,,,0.01,Wunderground v.1.15,2015-08-29 12:18:00,
2015-08-29 07:24:00,68.2,65.5,29.99,SSE,160,0.0,0.0,91,0.00,,,0.01,Wunderground v.1.15,2015-08-29 12:24:00,
2015-08-29 07:30:00,68.2,65.5,29.99,SSE,155,1.0,1.0,91,0.00,,,0.01,Wunderground v.1.15,2015-08-29 12:30:00,
2015-08-29 07:36:00,68.1,65.4,29.99,SSE,159,2.0,3.0,91,0.00,,,0.01,Wunderground v.1.15,2015-08-29 12:36:00,
2015-08-29 07:41:00,68.1,65.4,29.98,SSE,161,2.0,4.0,91,0.00,,,0.01,Wunderground v.1.15,2015-08-29 12:41:00,
2015-08-29 07:47:00,68.1,65.4,29.98,SSE,155,3.0,8.0,91,0.00,,,0.01,Wunderground v.1.15,2015-08-29 12:47:00,
2015-08-29 07:53:00,68.1,65.4,29.98,SE,146,5.0,7.0,91,0.00,,,0.01,Wunderground v.1.15,2015-08-29 12:53:00,
2015-08-29 07:59:00,68.1,65.4,29.98,SE,130,7.0,8.0,91,0.00,,,0.01,Wunderground v.1.15,2015-08-29 12:59:00,
2015-08-29 08:05:00,68.1,65.7,29.98,SSW,211,7.0,9.0,92,0.00,,,0.01,Wunderground v.1.15,2015-08-29 13:05:00,
2015-08-29 08:11:00,68.3,65.9,29.99,SSW,210,6.0,6.0,92,0.00,,,0.01,Wunderground v.1.15,2015-08-29 13:11:00,
2015-08-29 08:17:00,68.4,65.7,29.99,NW,304,3.0,6.0,91,0.00,,,0.01,Wunderground v.1.15,2015-08-29 13:17:00,
2015-08-29 08:23:00,68.3,65.6,29.99,WNW,286,2.0,3.0,91,0.00,,,0.01,Wunderground v.1.15,2015-08-29 13:23:00,
2015-08-29 08:29:00,68.5,66.1,29.99,West,278,3.0,4.0,92,0.00,,,0.02,Wunderground v.1.15,2015-08-29 13:29:00,
2015-08-29 08:35:00,68.9,66.5,29.99,West,264,3.0,4.0,92,0.14,,,0.03,Wunderground v.1.15,2015-08-29 13:35:00,
2015-08-29 08:41:00,69.0,66.3,29.99,SW,218,3.0,3.0,91,0.16,,,0.05,Wunderground v.1.15,2015-08-29 13:41:00,
2015-08-29 08:47:00,69.0,66.3,29.99,SSW,200,4.0,5.0,91,0.13,,,0.06,Wunderground v.1.15,2015-08-29 13:47:00,
2015-08-29 08:53:00,69.0,66.3,29.99,South,180,5.0,7.0,91,0.13,,,0.07,Wunderground v.1.15,2015-08-29 13:53:00,
2015-08-29 08:59:00,69.0,66.3,29.99,South,181,4.0,7.0,91,0.10,,,0.08,Wunderground v.1.15,2015-08-29 13:59:00,
2015-08-29 09:05:00,69.0,66.3,29.99,South,175,4.0,7.0,91,0.05,,,0.08,Wunderground v.1.15,2015-08-29 14:05:00,
2015-08-29 09:11:00,69.0,66.3,29.99,South,177,4.0,5.0,91,0.00,,,0.08,Wunderground v.1.15,2015-08-29 14:11:00,
2015-08-29 09:16:00,69.1,66.4,29.99,South,176,3.0,5.0,91,0.00,,,0.08,Wunderground v.1.15,2015-08-29 14:16:00,
2015-08-29 09:22:00,69.2,66.8,29.99,South,176,2.0,4.0,92,0.00,,,0.08,Wunderground v.1.15,2015-08-29 14:22:00,
2015-08-29 09:28:00,69.4,67.0,29.98,South,175,2.0,5.0,92,0.00,,,0.08,Wunderground v.1.15,2015-08-29 14:28:00,
2015-08-29 09:34:00,69.6,67.2,29.99,South,177,3.0,3.0,92,0.00,,,0.08,Wunderground v.1.15,2015-08-29 14:34:00,
2015-08-29 09:40:00,70.0,67.6,29.99,South,174,2.0,3.0,92,0.00,,,0.08,Wunderground v.1.15,2015-08-29 14:40:00,
2015-08-29 09:46:00,70.2,67.8,29.99,South,175,3.0,5.0,92,0.00,,,0.08,Wunderground v.1.15,2015-08-29 14:46:00,
2015-08-29 09:52:00,70.6,68.2,29.99,South,173,3.0,6.0,92,0.00,,,0.08,Wunderground v.1.15,2015-08-29 14:52:00,
2015-08-29 09:58:00,70.8,68.0,29.99,South,173,4.0,7.0,91,0.00,,,0.08,Wunderground v.1.15,2015-08-29 14:58:00,
2015-08-29 10:04:00,71.0,68.2,29.99,South,171,4.0,5.0,91,0.00,,,0.08,Wunderground v.1.15,2015-08-29 15:04:00,
2015-08-29 10:09:00,71.4,68.6,29.99,South,172,3.0,5.0,91,0.00,,,0.08,Wunderground v.1.15,2015-08-29 15:09:00,
2015-08-29 10:15:00,71.9,68.8,29.99,South,171,4.0,7.0,90,0.00,,,0.08,Wunderground v.1.15,2015-08-29 15:15:00,
2015-08-29 10:21:00,72.4,69.3,29.99,South,172,3.0,6.0,90,0.00,,,0.08,Wunderground v.1.15,2015-08-29 15:21:00,
2015-08-29 10:27:00,72.8,69.4,29.99,SSE,168,3.0,8.0,89,0.00,,,0.08,Wunderground v.1.15,2015-08-29 15:27:00,
2015-08-29 10:33:00,72.9,68.8,30.00,South,170,4.0,4.0,87,0.00,,,0.08,Wunderground v.1.15,2015-08-29 15:33:00,
2015-08-29 10:39:00,73.1,68.7,30.00,South,169,3.0,4.0,86,0.00,,,0.08,Wunderground v.1.15,2015-08-29 15:39:00,
2015-08-29 10:45:00,73.3,68.9,30.00,South,169,3.0,6.0,86,0.00,,,0.08,Wunderground v.1.15,2015-08-29 15:45:00,
2015-08-29 10:51:00,73.6,69.2,30.00,South,170,3.0,4.0,86,0.00,,,0.08,Wunderground v.1.15,2015-08-29 15:51:00,
2015-08-29 10:57:00,73.7,68.9,30.00,South,169,4.0,4.0,85,0.00,,,0.08,Wunderground v.1.15,2015-08-29 15:57:00,
2015-08-29 11:02:00,73.7,68.9,29.99,South,172,5.0,6.0,85,0.00,,,0.08,Wunderground v.1.15,2015-08-29 16:02:00,
2015-08-29 11:08:00,73.8,68.7,29.99,SSW,196,5.0,9.0,84,0.00,,,0.08,Wunderground v.1.15,2015-08-29 16:08:00,
2015-08-29 11:14:00,73.8,68.7,29.99,South,175,5.0,6.0,84,0.00,,,0.08,Wunderground v.1.15,2015-08-29 16:14:00,
2015-08-29 11:20:00,73.9,68.8,29.99,South,170,5.0,5.0,84,0.00,,,0.08,Wunderground v.1.15,2015-08-29 16:20:00,
2015-08-29 11:26:00,74.1,69.0,29.99,SSW,196,4.0,5.0,84,0.00,,,0.08,Wunderground v.1.15,2015-08-29 16:26:00,
2015-08-29 11:31:00,74.2,68.3,29.99,South,183,4.0,5.0,82,0.00,,,0.08,Wunderground v.1.15,2015-08-29 16:31:00,
2015-08-29 11:37:00,74.5,69.0,29.99,South,191,4.0,7.0,83,0.00,,,0.08,Wunderground v.1.15,2015-08-29 16:37:00,
2015-08-29 11:43:00,74.8,68.6,29.98,SSW,199,4.0,7.0,81,0.00,,,0.08,Wunderground v.1.15,2015-08-29 16:43:00,
2015-08-29 11:49:00,75.3,69.1,29.99,SSW,200,4.0,7.0,81,0.00,,,0.08,Wunderground v.1.15,2015-08-29 16:49:00,
2015-08-29 11:55:00,75.5,68.9,29.99,SSW,202,3.0,5.0,80,0.00,,,0.08,Wunderground v.1.15,2015-08-29 16:55:00,
2015-08-29 12:00:00,75.6,68.3,29.99,SW,215,5.0,5.0,78,0.00,,,0.08,Wunderground v.1.15,2015-08-29 17:00:00,
2015-08-29 12:06:00,75.8,68.4,30.00,SSW,203,6.0,8.0,78,0.00,,,0.08,Wunderground v.1.15,2015-08-29 17:06:00,